Weather History for Alma, GA

Change the Weather History Date:

Thursday, March 27, 2014

  Actual Average Record
Temperature  
Mean Temperature 53 °F 62 °F  
Max Temperature 71 °F 75 °F 86 °F (1949)
Min Temperature 34 °F 50 °F 24 °F (1955)
Degree Days  
Heating Degree Days 12 4  
Month to date heating degree days 264 172  
Since 1 July heating degree days 1731 1573  
Cooling Degree Days 0 2  
Month to date cooling degree days 1 29  
Year to date cooling degree days 9 45  
Growing Degree Days 2 (Base 50)    
Moisture  
Dew Point 40 °F    
Average Humidity 66    
Maximum Humidity 92    
Minimum Humidity 39    
Precipitation  
Precipitation 0.00 in 0.15 in 1.60 in (2005)
Month to date precipitation 2.98 4.18  
Year to date precipitation 6.50 12.24  
Snow  
Snow 0.00 in 0.00 in 0.00 in ()
Month to date snowfall 0.0 0.0  
Since 1 July snowfall T 0.1  
Snow Depth 0.00 in    
Sea Level Pressure  
Sea Level Pressure 30.30 in    
Wind  
Wind Speed 6 mph (SE)    
Max Wind Speed 16 mph    
Max Gust Speed 22 mph    
Visibility 9 miles    
Events      
T = Trace of Precipitation, MM = Missing Value Source: NWS Daily Summary

Daily Weather History Graph

Daily Weather History Graph

Search for Another Location

Airport:

Trip Planner

Search our weather history database for the weather conditions in past years. The results will help you decide how hot, cold, wet, or windy it might be!

Date:

Astronomy

Mar. 27, 2014 Rise Set
Actual Time 7:24 AM EDT 7:46 PM EDT
Civil Twilight 7:00 AM EDT 8:10 PM EDT
Nautical Twilight 6:32 AM EDT 8:39 PM EDT
Astronomical Twilight 6:03 AM EDT 9:08 PM EDT
Moon 5:03 AM EDT (3/27) 4:43 PM EDT (3/27)
Length of Visible Light 13h 10m
Length of Day
12h 21m
Waning Crescent, 13% of the Moon is Illuminated
Mar 27
Waning Crescent
Mar 30
New
Apr 7
First Quarter
Apr 15
Full
Apr 22
Last Quarter

Hourly Weather History & Observations

Time (EDT) Temp. Windchill Dew Point Humidity Pressure Visibility Wind Dir Wind Speed Gust Speed Precip Events Conditions
12:53 AM 39.0 °F - 34.0 °F 82% 30.31 in 10.0 mi Calm Calm - N/A   Clear
1:53 AM 35.1 °F - 30.9 °F 85% 30.30 in 10.0 mi Calm Calm - N/A   Clear
2:53 AM 34.0 °F 31.0 °F 30.9 °F 89% 30.30 in 10.0 mi East 3.5 mph - N/A   Clear
3:53 AM 36.0 °F - 32.0 °F 86% 30.30 in 10.0 mi Calm Calm - N/A   Clear
4:53 AM 35.1 °F - 30.9 °F 85% 30.30 in 7.0 mi Calm Calm - N/A   Clear
5:53 AM 35.1 °F - 32.0 °F 89% 30.32 in 6.0 mi Calm Calm - N/A   Clear
6:53 AM 36.0 °F - 33.1 °F 89% 30.34 in 5.0 mi Calm Calm - N/A   Clear
7:53 AM 37.9 °F - 34.0 °F 86% 30.35 in 5.0 mi Calm Calm - N/A   Clear
8:53 AM 44.1 °F 41.5 °F 37.9 °F 79% 30.35 in 9.0 mi East 4.6 mph - N/A   Clear
9:53 AM 50.0 °F - 37.9 °F 63% 30.38 in 10.0 mi East 3.5 mph - N/A   Clear
10:53 AM 57.0 °F - 35.1 °F 44% 30.38 in 10.0 mi ESE 10.4 mph - N/A   Clear
11:53 AM 62.1 °F - 37.9 °F 41% 30.38 in 10.0 mi SE 10.4 mph 18.4 mph N/A   Partly Cloudy
12:53 PM 64.0 °F - 39.9 °F 41% 30.35 in 10.0 mi SE 12.7 mph 17.3 mph N/A   Scattered Clouds
1:53 PM 66.0 °F - 43.0 °F 43% 30.33 in 10.0 mi SE 9.2 mph - N/A   Mostly Cloudy
2:53 PM 68.0 °F - 44.1 °F 42% 30.30 in 10.0 mi SSE 8.1 mph - N/A   Mostly Cloudy
3:53 PM 68.0 °F - 45.0 °F 43% 30.28 in 10.0 mi South 11.5 mph - N/A   Mostly Cloudy
4:53 PM 69.1 °F - 44.1 °F 40% 30.26 in 10.0 mi South 13.8 mph - N/A   Mostly Cloudy
5:53 PM 68.0 °F - 46.0 °F 45% 30.26 in 10.0 mi South 11.5 mph - N/A   Overcast
6:53 PM 66.9 °F - 46.0 °F 47% 30.25 in 10.0 mi SE 10.4 mph - N/A   Mostly Cloudy
7:53 PM 63.0 °F - 46.9 °F 56% 30.24 in 10.0 mi ESE 8.1 mph - N/A   Partly Cloudy
8:53 PM 61.0 °F - 48.0 °F 62% 30.24 in 10.0 mi SE 10.4 mph - N/A   Clear
9:53 PM 59.0 °F - 48.0 °F 67% 30.26 in 10.0 mi East 5.8 mph - N/A   Clear
10:53 PM 57.0 °F - 48.0 °F 72% 30.26 in 10.0 mi ESE 4.6 mph - N/A   Clear
11:53 PM 57.0 °F - 48.9 °F 74% 30.25 in 10.0 mi ESE 5.8 mph - N/A   Clear